User: anonymous   Login
Location: Unspecified
(0.0000°N, 0.0000°E)
Time: 21:55:54
(UTC+00:00)
Language:

STARLINK-30814 - Orbit

View from above orbital plane
View from above orbital plane
View from above satellite
View from above satellite

Ground track
Ground track

The orbit is defined by the following mean orbital elements,

1 58165U          26145.50237617 +.00000000 +00000-0 +69877-4 0 00008
2 58165  53.1602 222.5466 0001094  83.5194 276.5931 15.30203243    01
Epoch (UTC): 25 May 2026 12:03:25
Eccentricity: 0.0001094
inclination: 53.1602°
perigee height: 474 km
apogee height: 476 km
right ascension of ascending node: 222.5466°
argument of perigee: 83.5194°
revolutions per day: 15.30203243
mean anomaly at epoch: 276.5931°

The dashed part of the orbit path shows where the satellite is in the earth's shadow,  

DLR